TimeCST,TemperatureF,Dew PointF,Humidity,Sea Level PressureIn,VisibilityMPH,Wind Direction,Wind SpeedMPH,Gust SpeedMPH,PrecipitationIn,Events,Conditions,WindDirDegrees,DateUTC
12:52 AM,30.0,21.0,69,30.27,10.0,WSW,5.8,-,N/A,,Clear,250,2013-01-06 06:52:00
1:52 AM,30.0,19.9,66,30.30,10.0,Variable,3.5,-,N/A,,Clear,0,2013-01-06 07:52:00
2:52 AM,28.9,19.9,69,30.32,10.0,Variable,3.5,-,N/A,,Clear,0,2013-01-06 08:52:00
3:52 AM,26.1,18.0,71,30.33,10.0,Calm,Calm,-,N/A,,Clear,0,2013-01-06 09:52:00
4:52 AM,23.0,17.1,78,30.35,10.0,Calm,Calm,-,N/A,,Clear,0,2013-01-06 10:52:00
5:52 AM,21.9,16.0,78,30.36,10.0,Calm,Calm,-,N/A,,Clear,0,2013-01-06 11:52:00
6:52 AM,19.9,15.1,81,30.40,10.0,Calm,Calm,-,N/A,,Clear,0,2013-01-06 12:52:00
7:52 AM,21.9,16.0,78,30.41,10.0,WSW,5.8,-,N/A,,Clear,250,2013-01-06 13:52:00
8:52 AM,24.1,18.0,77,30.42,10.0,SW,5.8,-,N/A,,Clear,230,2013-01-06 14:52:00
9:52 AM,28.9,19.9,69,30.42,10.0,SSW,3.5,-,N/A,,Clear,200,2013-01-06 15:52:00
10:52 AM,33.1,21.0,61,30.43,10.0,SSW,3.5,-,N/A,,Clear,200,2013-01-06 16:52:00
11:52 AM,36.0,21.9,57,30.40,10.0,SSE,3.5,-,N/A,,Clear,150,2013-01-06 17:52:00
12:52 PM,39.9,21.9,49,30.36,10.0,South,4.6,-,N/A,,Clear,190,2013-01-06 18:52:00
1:52 PM,43.0,21.0,42,30.33,10.0,South,8.1,-,N/A,,Clear,190,2013-01-06 19:52:00
2:52 PM,44.1,21.9,42,30.32,10.0,SSW,6.9,-,N/A,,Clear,210,2013-01-06 20:52:00
3:52 PM,45.0,24.1,44,30.31,10.0,SW,8.1,-,N/A,,Clear,220,2013-01-06 21:52:00
4:52 PM,41.0,25.0,53,30.31,10.0,SSW,4.6,-,N/A,,Clear,210,2013-01-06 22:52:00
5:52 PM,36.0,25.0,64,30.32,10.0,Calm,Calm,-,N/A,,Clear,0,2013-01-06 23:52:00
6:52 PM,28.0,23.0,81,30.32,10.0,Calm,Calm,-,N/A,,Clear,0,2013-01-07 00:52:00
7:52 PM,28.0,21.9,78,30.31,10.0,Calm,Calm,-,N/A,,Clear,0,2013-01-07 01:52:00
8:52 PM,25.0,21.9,88,30.29,10.0,Calm,Calm,-,N/A,,Clear,0,2013-01-07 02:52:00
9:52 PM,26.1,21.0,81,30.28,10.0,Calm,Calm,-,N/A,,Clear,0,2013-01-07 03:52:00
10:52 PM,32.0,21.9,66,30.25,10.0,SSW,8.1,-,N/A,,Clear,210,2013-01-07 04:52:00
11:52 PM,30.0,21.9,72,30.24,10.0,SSW,6.9,-,N/A,,Clear,210,2013-01-07 05:52:00